Weather History for BIEG - October, 2012

Change the Weather History Date:

Thursday, October 11, 2012

  Actual Average Record
Temperature  
Mean Temperature 46 °F -  
Max Temperature 50 °F 38 °F 59 °F (2013)
Min Temperature 42 °F 29 °F 30 °F (2005)
Degree Days  
Heating Degree Days 19    
Moisture  
Dew Point 41 °F    
Average Humidity 83    
Maximum Humidity 93    
Minimum Humidity 71    
Precipitation  
Precipitation 0.00 in - - ()
Sea Level Pressure  
Sea Level Pressure 29.47 in    
Wind  
Wind Speed 5 mph ()    
Max Wind Speed 13 mph    
Max Gust Speed -    
Visibility 6.2 miles    
Events Rain    
Averages and records for this station are not official NWS values.
T = Trace of Precipitation, MM = Missing Value Source: Averaged Metar Reports

Daily Weather History Graph

Daily Weather History Graph

Search for Another Location

Airport or City:

Trip Planner

Search our weather history database for the weather conditions in past years. The results will help you decide how hot, cold, wet, or windy it might be!

Date:

Astronomy

Oct. 11, 2012 Rise Set
Actual Time 7:39 AM GMT 5:47 PM GMT
Civil Twilight 6:49 AM GMT 6:37 PM GMT
Nautical Twilight 5:51 AM GMT 7:34 PM GMT
Astronomical Twilight 4:51 AM GMT 8:34 PM GMT
Moon 1:31 AM GMT (10/11) 4:33 PM GMT (10/11)
Length of Visible Light 11h 48m
Length of Day
10h 07m
Waning Crescent, 20% of the Moon is Illuminated
Oct 11
Waning Crescent
Oct 15
New
Oct 22
First Quarter
Oct 29
Full
Nov 7
Last Quarter

Hourly Weather History & Observations

Time (GMT) Temp. Windchill Dew Point Humidity Pressure Visibility Wind Dir Wind Speed Gust Speed Precip Events Conditions
12:00 AM 48.2 °F - 39.2 °F 71% 29.44 in 6.2 mi SE 12.7 mph - N/A   Mostly Cloudy
1:00 AM 46.4 °F 43.5 °F 41.0 °F 81% 29.44 in 6.2 mi SSE 5.8 mph - N/A Rain Light Rain Showers
2:00 AM 46.4 °F 42.9 °F 39.2 °F 76% 29.44 in 6.2 mi South 6.9 mph - N/A Rain Light Rain Showers
3:00 AM 46.4 °F 45.2 °F 39.2 °F 76% 29.42 in 6.2 mi South 3.5 mph - N/A Rain Light Rain Showers
4:00 AM 42.8 °F - 41.0 °F 93% 29.42 in 6.2 mi South 2.3 mph - N/A Rain Light Rain
5:00 AM 42.8 °F 38.0 °F 41.0 °F 93% 29.42 in 6.2 mi South 8.1 mph - N/A Rain Light Rain
6:00 AM 44.6 °F 43.1 °F 41.0 °F 87% 29.42 in 6.2 mi WSW 3.5 mph - N/A Rain Light Rain
7:00 AM 42.8 °F - 41.0 °F 93% 29.42 in 6.2 mi Variable 2.3 mph - N/A Rain Light Rain
8:00 AM 44.6 °F - 41.0 °F 87% 29.39 in 6.2 mi Variable 2.3 mph - N/A Rain Light Rain
9:00 AM 46.4 °F 45.2 °F 41.0 °F 81% 29.42 in 6.2 mi Variable 3.5 mph - N/A Rain Light Rain
10:00 AM 46.4 °F 43.5 °F 42.8 °F 87% 29.42 in 6.2 mi WSW 5.8 mph - N/A Rain Rain
11:00 AM 48.2 °F - 41.0 °F 76% 29.42 in 6.2 mi WSW 4.6 mph - N/A Rain Rain
12:00 PM 48.2 °F - 42.8 °F 82% 29.42 in 6.2 mi SSW 4.6 mph - N/A Rain Light Rain
1:00 PM 48.2 °F - 42.8 °F 82% 29.44 in 6.2 mi Variable 3.5 mph - N/A   Light Drizzle
2:00 PM 50.0 °F - 42.8 °F 76% 29.44 in 6.2 mi WSW 3.5 mph - N/A   Light Drizzle
3:00 PM 48.2 °F - 44.6 °F 87% 29.44 in 6.2 mi SSW 8.1 mph - N/A Rain Light Rain
4:00 PM 48.2 °F - 42.8 °F 82% 29.47 in 6.2 mi SSE 11.5 mph - N/A   Mostly Cloudy
5:00 PM 48.2 °F - 42.8 °F 82% 29.50 in 6.2 mi SSW 8.1 mph - N/A   Mostly Cloudy
6:00 PM 48.2 °F - 42.8 °F 82% 29.53 in 6.2 mi South 10.4 mph - N/A   Mostly Cloudy
7:00 PM 46.4 °F 41.1 °F 41.0 °F 81% 29.56 in 6.2 mi South 11.5 mph - N/A   Mostly Cloudy
8:00 PM 46.4 °F 42.9 °F 41.0 °F 81% 29.59 in 6.2 mi SW 6.9 mph - N/A   Mostly Cloudy
9:00 PM 42.8 °F 41.1 °F 39.2 °F 87% 29.62 in 6.2 mi SSE 3.5 mph - N/A   Mostly Cloudy
10:00 PM 42.8 °F - 39.2 °F 87% 29.65 in 6.2 mi Calm Calm - N/A   Mostly Cloudy
11:00 PM 42.8 °F 41.1 °F 39.2 °F 87% 29.65 in 6.2 mi Variable 3.5 mph - N/A   Mostly Cloudy